Regional Weather Roundup
Issued by NWS

Home | Current Version | Previous Version | Text Only | Print | Product List | Glossary Off
Versions: 1 2 3 4 5 6 7 8 9 10 11 12 13 14 15 16 17 18 19 20 21 22 23 24 25 26 27 28 29 30 31 32 33 34 35 36 37 38 39 40 41 42 43 44 45 46 47 48 49 50

000
ASUS43 KLMK 251802
RWRKY
KENTUCKY REGIONAL WEATHER ROUNDUP
NATIONAL WEATHER SERVICE LOUISVILLE KY
100 PM EST TUE NOV 25 2014

NOTE "FAIR" INDICATES FEW OR NO CLOUDS BELOW 12,000 FEET
WITH NO SIGNIFICANT WEATHER AND/OR OBSTRUCTIONS TO VISIBILITY.

KYZ001>023-026-027-061>063-070>075-251900-
WESTERN AND SOUTH CENTRAL KENTUCKY

CITY           SKY/WX    TMP DP  RH WIND       PRES   REMARKS
PADUCAH        SUNNY     43  24  47 W6        30.18F
HENDERSON      SUNNY     41  27  56 W9        30.18F
OWENSBORO      SUNNY     42  28  58 NW8G15    30.18F
HOPKINSVILLE   SUNNY     45  26  49 W8        30.16F
BOWLING GREEN  SUNNY     46  25  43 SW5       30.17F
GLASGOW        NOT AVBL
$$

KYZ024-025-028>034-038-045-046-053-251900-
NORTH CENTRAL KENTUCKY

CITY           SKY/WX    TMP DP  RH WIND       PRES   REMARKS
LOUISVILLE/SDF MOSUNNY   45  26  47 W13       30.15F
LOUISVILLE/LOU SUNNY     43  26  51 W8        30.15F
FORT KNOX      MOSUNNY   43  27  52 SW10      30.13F
$$

KYZ035>037-039>044-047>052-055>060-089>105-251900-
NORTHEAST KENTUCKY

CITY           SKY/WX    TMP DP  RH WIND       PRES   REMARKS
LEXINGTON      SUNNY     46  31  55 W13       30.12F
COVINGTON      PTSUNNY   43  27  53 W9        30.10F
FRANKFORT      SUNNY     44  26  49 VRB3      30.12S
$$

KYZ054-064>069-076>088-106>120-251900-
SOUTHEAST KENTUCKY

CITY           SKY/WX    TMP DP  RH WIND       PRES   REMARKS
JACKSON        SUNNY     54  27  35 CALM      30.09F
LONDON         SUNNY     52  25  35 SW6       30.11F
SOMERSET       NOT AVBL
MIDDLESBORO    NOT AVBL
MONTICELLO     CLEAR     53  29  40 W12       30.15F
$$



USA.gov is the U.S. government's official web portal to all federal, state and local government web resources and services.